Regional Weather Roundup
Issued by NWS Northern Indiana

Home | Current Version | Previous Version | Graphics & Text | Print | Product List | Glossary On
Versions: 1 2 3 4 5 6 7 8 9 10 11 12 13 14 15 16 17 18 19 20 21 22 23 24 25 26 27 28 29 30 31 32 33 34 35 36 37 38 39 40 41 42 43 44 45 46 47 48 49 50
884
ASUS43 KIWX 311800
RWRIWX

KIWX WEATHER ROUNDUP
NATIONAL WEATHER SERVICE NORTHERN INDIANA
200 PM EDT WED AUG 31 2016

NOTE: "FAIR" INDICATES FEW OR NO CLOUDS BELOW 12,000 FEET WITH NO
SIGNIFICANT WEATHER AND/OR OBSTRUCTIONS TO VISIBILITY.

* THESE STATIONS ARE NOT UNDER NWS QUALITY CONTROL. THEY ALSO MAY NOT
  REPORT WEATHER SUCH AS PRECIPITATION OR FOG.

INZ001>027-311900-
NORTHERN INDIANA

CITY           SKY/WX    TMP DP  RH WIND       PRES   REMARKS
GARY*          PTSUNNY   75  66  73 N17       30.07S
KNOX*          PTSUNNY   79  50  36 NW12      30.01F
SOUTH BEND     PTSUNNY   79  70  74 NW16      30.01F
6HR MIN TEMP:  69; 6HR MAX TEMP:  82;

ELKHART*       PTSUNNY  N/A N/A N/A N8        30.00F
GOSHEN         PTSUNNY   81  67  62 E6        30.00F
6HR MIN TEMP:  70; 6HR MAX TEMP:  82;

MONTICELLO*    MOSUNNY   82  65  57 NW5       30.00F
6HR MIN TEMP:  69; 6HR MAX TEMP:  83;

ANGOLA*        PTSUNNY   82  72  69 N6        30.00F
FORT WAYNE     PTSUNNY   80  69  69 NW5       30.00F
6HR MIN TEMP:  70; 6HR MAX TEMP:  83;

PERU/GRISSOM   MOSUNNY   81  70  68 VRB1      30.00F
6HR MIN TEMP:  70; 6HR MAX TEMP:  82;


$$
INZ028>050-311900-
CENTRAL INDIANA

CITY           SKY/WX    TMP DP  RH WIND       PRES   REMARKS
LAFAYETTE      CLOUDY    81  71  71 CALM      30.00F
6HR MIN TEMP:  70; 6HR MAX TEMP:  82;

KOKOMO*        PTSUNNY   81  73  78 CALM      30.01S
6HR MIN TEMP:  70; 6HR MAX TEMP:  81;

MUNCIE*        MOSUNNY   82  72  71 NW9       30.00F
6HR MIN TEMP:  71; 6HR MAX TEMP:  82;

INDIANAPOLIS   PTSUNNY   84  70  62 N6        29.99F
6HR MIN TEMP:  70; 6HR MAX TEMP:  84;


$$
MIZ043>046-050>051-056>058-064>065-071>073-077>080-311900-
SOUTHWEST LOWER MICHIGAN

CITY           SKY/WX    TMP DP  RH WIND       PRES   REMARKS
BATTLE CREEK   PTSUNNY   73  67  81 N8        30.03F
6HR MIN TEMP:  69; 6HR MAX TEMP:  74;

BENTON HARBOR  MOSUNNY   75  62  64 N8G20     30.03S
6HR MIN TEMP:  70; 6HR MAX TEMP:  79;

COLDWATER*     PTSUNNY   78  69  75 N8        30.00F
6HR MIN TEMP:  69; 6HR MAX TEMP:  80;

HILLSDALE*     MOSUNNY   78  67  70 N9        30.01F
6HR MIN TEMP:  51; 6HR MAX TEMP:  84;

HOLLAND        SUNNY     77  58  51 VRB5      30.05S
6HR MIN TEMP:  70; 6HR MAX TEMP:  77;

GRAND RAPIDS   MOSUNNY   76  57  51 NW8G17    30.04F
6HR MIN TEMP:  68; 6HR MAX TEMP:  77;

KALAMAZOO      PTSUNNY   77  66  68 N10       30.01F
6HR MIN TEMP:  72; 6HR MAX TEMP:  80;

STURGIS*       CLOUDY    79  68  68 NW3       29.99F
6HR MIN TEMP:  70; 6HR MAX TEMP:  81;

THREE RIVERS*  FAIR      83  68  62 NW6       30.00F
6HR MIN TEMP:  70; 6HR MAX TEMP:  83;


$$
OHZ001>008-015>018-024>025-311900-
NORTHWEST OHIO

CITY           SKY/WX    TMP DP  RH WIND       PRES   REMARKS
DEFIANCE       MOSUNNY   81  68  64 NW7       29.99F
6HR MIN TEMP:  70; 6HR MAX TEMP:  81;

FINDLAY        PTSUNNY   81  69  67 NW8       29.97S
6HR MIN TEMP:  71; 6HR MAX TEMP:  82;

TOLEDO EXPRESS CLOUDY    79  71  76 N10G18    29.97F
6HR MIN TEMP:  68; 6HR MAX TEMP:  81;

TOLEDO METCALF MOSUNNY   82  70  66 NW5       29.97F
6HR MIN TEMP:  70; 6HR MAX TEMP:  82;

LIMA           MOSUNNY   79  71  76 NW7       29.99F
6HR MIN TEMP:  68; 6HR MAX TEMP:  79;


$$
AND FOR LAKE MICHIGAN COASTAL AND OPEN LAKE BUOY OBSERVATIONS

STATION/POSITION TEMP    WIND        PRES    VSBY  WAVE
                 AIR SEA DIR/SP/G                  HT/PER
                 (F)     (DEG/KT/KT) (MB)    (MI)  (FT/S)
CALUMET HARBOR    74     340/ 10/ 16 1017.7R
MICHIGAN CITY     72     350/ 16/ 19   N/A
BURNS HARBOR      72     360/ 15/ 18 1017.9S
SAINT JOSEPH      71      10/ 12/ 16 1017.9R
SOUTH LAKE BUOY   70 75   20/ 17/ 23 1017.6          4/ 6
4 MI NW BRIDGMAN  72 74  350/ 16/ 19 1016.7R         4/ 5
MICHIGAN CITY     72 71  360/ 16/ 19   N/A           4/ 5

$$
&&




USA.gov is the U.S. government's official web portal to all federal, state and local government web resources and services.